Location: Nitra
(0.0000°N, 18.0833°E)
Time: 19:29:43
(UTC+02:00)

Okean-O - Visible Passes

Search period start: 14 May 2021 00:00
Search period end: 24 May 2021 00:00
Orbit: 639 x 640 km, 98.2° (Epoch: 13 May)

Date Brightness Start Highest point End Pass type
(mag) Time Alt. Az. Time Alt. Az. Time Alt. Az.
14 May 4.5 19:15:36 10° ESE 19:17:38 13° ENE 19:19:40 10° NE visible
14 May 4.5 20:52:43 24° SW 20:53:50 26° WSW 20:57:32 10° NW visible
15 May 3.6 19:38:43 18° ESE 19:40:52 27° ENE 19:44:35 10° NNE visible
15 May 5.4 21:16:18 12° WSW 21:17:03 13° WSW 21:19:01 10° WNW visible
16 May 2.6 20:02:18 32° SE 20:04:07 58° ENE 20:08:26 10° N visible
17 May 2.9 20:25:53 39° SSW 20:27:21 64° WSW 20:31:44 10° NNW visible
18 May 4.6 19:12:56 10° E 19:14:24 11° ENE 19:15:51 10° ENE visible
18 May 4.3 20:49:27 26° SW 20:50:36 30° WSW 20:54:27 10° NW visible
19 May 3.8 19:35:27 17° ESE 19:37:37 24° ENE 19:41:11 10° NNE visible
19 May 5.3 21:13:01 14° WSW 21:13:49 14° WSW 21:16:13 10° WNW visible
20 May 2.8 19:59:02 30° SE 20:00:52 51° ENE 20:05:09 10° N visible
21 May 2.7 20:22:36 40° S 20:24:07 73° WSW 20:28:31 10° NNW visible
22 May 4.1 20:46:10 28° SW 20:47:22 33° WSW 20:51:20 10° NW visible
23 May 3.9 19:32:10 15° ESE 19:34:23 21° ENE 19:37:45 10° NNE visible
23 May 5.1 21:09:44 15° WSW 21:10:35 16° WSW 21:13:19 10° WNW visible
